Weather History for Quantico, VA

Change the Weather History Date:

Tuesday, November 6, 2012

  Actual Average Record
Temperature  
Mean Temperature 38 °F -  
Max Temperature 46 °F 57 °F 75 °F (1999)
Min Temperature 30 °F 39 °F 30 °F (2012)
Degree Days  
Heating Degree Days 27    
Moisture  
Dew Point 28 °F    
Average Humidity 62    
Maximum Humidity 82    
Minimum Humidity 44    
Precipitation  
Precipitation 0.00 in - - ()
Sea Level Pressure  
Sea Level Pressure 30.15 in    
Wind  
Wind Speed 7 mph (NNE)    
Max Wind Speed 10 mph    
Max Gust Speed -    
Visibility 10 miles    
Events      
Averages and records for this station are not official NWS values.
T = Trace of Precipitation, MM = Missing Value Source: NWS Daily Summary

Daily Weather History Graph

Daily Weather History Graph

Search for Another Location

Airport:

Trip Planner

Search our weather history database for the weather conditions in past years. The results will help you decide how hot, cold, wet, or windy it might be!

Date:

Astronomy

Nov. 06, 2012 Rise Set
Actual Time 6:41 AM EST 5:03 PM EST
Civil Twilight 6:13 AM EST 5:31 PM EST
Nautical Twilight 5:42 AM EST 6:02 PM EST
Astronomical Twilight 5:11 AM EST 6:33 PM EST
Moon 11:39 PM EST (11/6) 12:33 PM EST (11/6)
Length of Visible Light 11h 17m
Length of Day
10h 21m
Waning Gibbous, 53% of the Moon is Illuminated
Nov 6
Waning Gibbous
Nov 6
Last Quarter
Nov 13
New
Nov 20
First Quarter
Nov 28
Full

Hourly Weather History & Observations

Time (EST) Temp. Windchill Dew Point Humidity Pressure Visibility Wind Dir Wind Speed Gust Speed Precip Events Conditions
12:56 AM 37.0 °F 32.4 °F 27.0 °F 67% 30.21 in 10.0 mi North 5.8 mph - N/A   Clear
1:56 AM 33.1 °F 26.1 °F 28.0 °F 82% 30.21 in 10.0 mi NW 8.1 mph - N/A   Clear
2:56 AM 33.1 °F 27.7 °F 28.0 °F 82% 30.20 in 10.0 mi WNW 5.8 mph - N/A   Clear
3:56 AM 32.0 °F 25.6 °F 27.0 °F 82% 30.19 in 10.0 mi NW 6.9 mph - N/A   Clear
4:56 AM 32.0 °F 25.6 °F 27.0 °F 82% 30.20 in 10.0 mi WNW 6.9 mph - N/A   Clear
5:56 AM 30.9 °F 24.3 °F 25.0 °F 79% 30.21 in 10.0 mi NW 6.9 mph - N/A   Clear
6:56 AM 30.9 °F 25.2 °F 25.0 °F 79% 30.21 in 10.0 mi NW 5.8 mph - N/A   Scattered Clouds
7:56 AM 35.1 °F 30.1 °F 27.0 °F 72% 30.23 in 10.0 mi North 5.8 mph - N/A   Scattered Clouds
8:56 AM 39.9 °F 35.8 °F 30.0 °F 68% 30.23 in 10.0 mi ENE 5.8 mph - N/A   Scattered Clouds
9:56 AM 42.1 °F 38.4 °F 28.0 °F 58% 30.25 in 10.0 mi ENE 5.8 mph - N/A   Scattered Clouds
10:56 AM 43.0 °F 38.8 °F 26.1 °F 51% 30.22 in 10.0 mi NE 6.9 mph - N/A   Scattered Clouds
11:56 AM 44.1 °F 39.0 °F 26.1 °F 49% 30.19 in 10.0 mi ENE 9.2 mph - N/A   Mostly Cloudy
12:56 PM 45.0 °F 40.6 °F 25.0 °F 46% 30.15 in 10.0 mi NE 8.1 mph - N/A   Mostly Cloudy
1:56 PM 45.0 °F 40.6 °F 25.0 °F 46% 30.12 in 10.0 mi NE 8.1 mph - N/A   Mostly Cloudy
2:56 PM 46.0 °F 43.1 °F 25.0 °F 44% 30.10 in 10.0 mi NE 5.8 mph - N/A   Mostly Cloudy
3:56 PM 46.0 °F 43.1 °F 26.1 °F 46% 30.10 in 10.0 mi NNE 5.8 mph - N/A   Mostly Cloudy
4:56 PM 46.0 °F 41.4 °F 27.0 °F 47% 30.08 in 10.0 mi East 9.2 mph - N/A   Mostly Cloudy
5:56 PM 44.1 °F 40.1 °F 30.0 °F 58% 30.08 in 10.0 mi East 6.9 mph - N/A   Overcast
6:56 PM 45.0 °F 40.1 °F 32.0 °F 60% 30.06 in 10.0 mi ENE 9.2 mph - N/A   Overcast
7:56 PM 44.1 °F 38.6 °F 30.9 °F 60% 30.06 in 10.0 mi NE 10.4 mph - N/A   Overcast
8:56 PM 44.1 °F 38.6 °F 30.9 °F 60% 30.07 in 10.0 mi NE 10.4 mph - N/A   Overcast
9:56 PM 43.0 °F 37.7 °F 30.9 °F 62% 30.06 in 10.0 mi NE 9.2 mph - N/A   Overcast
10:56 PM 43.0 °F 37.7 °F 30.0 °F 60% 30.04 in 10.0 mi NNE 9.2 mph - N/A   Overcast
11:56 PM 43.0 °F 38.8 °F 30.0 °F 60% 30.03 in 10.0 mi NE 6.9 mph - N/A   Mostly Cloudy